User: anonymous   Login
Location: *
(49.3500°N, 12.6000°E)
Time: 03:42:12
(UTC+00:00)
Language:

Resurs 01 Rocket - Orbit

View from above orbital plane
View from above orbital plane
View from above satellite
View from above satellite

Ground track
Ground track

The orbit data is extracted from the following two-line orbital elements,

1 23343U 94074B   19347.98202264  .00000022  00000-0  10523-4 0  9995
2 23343  98.0284  37.3317 0007664  40.2148  14.4892 14.76802719351107
Epoch (UTC): 13 December 2019 23:34:06
Eccentricity: 0.0007664
inclination: 98.0284°
perigee height: 634 km
apogee height: 645 km
right ascension of ascending node: 37.3317°
argument of perigee: 40.2148°
revolutions per day: 14.76802719
mean anomaly at epoch: 14.4892°
orbit number at epoch: 35110

The dashed part of the orbit path shows where the satellite is in the earth's shadow,  

DLR